SWA2758 KABQ-KLAX

Flight info

Callsign SWA2758
Flight time 1h 40m
Altitude 32000
Route ADYOS3 ZUN J6 DRK HIPPI GABBL HLYWD1
Aircraft B738/M-SDE2E3FGHIRWXY/LB1

Departure

Time 2026-05-05 02:05
Airport Albuquerque International Sunport (KABQ)

Arrival

Time 2026-05-05 03:45
Airport Los Angeles International Airport (KLAX)
Time Latitude Longitude Altitude Speed Heading
2026-05-05 01:32 35.04686 -106.61692 5321 ft 0 kts 13°
2026-05-05 01:50 35.04673 -106.61696 5318 ft 4 kts 13°
2026-05-05 01:50 35.04652 -106.61702 5317 ft 4 kts 20°
2026-05-05 01:51 35.04631 -106.61719 5316 ft 4 kts 62°
2026-05-05 01:51 35.04624 -106.61749 5316 ft 3 kts 89°
2026-05-05 01:51 35.04624 -106.61753 5316 ft 0 kts 89°
2026-05-05 01:56 35.04624 -106.61749 5326 ft 6 kts 89°
2026-05-05 01:57 35.04625 -106.61671 5327 ft 9 kts 88°
2026-05-05 01:57 35.04626 -106.61593 5327 ft 9 kts 88°
2026-05-05 01:57 35.04626 -106.61568 5327 ft 9 kts 90°
2026-05-05 01:58 35.04625 -106.61492 5327 ft 9 kts 93°
2026-05-05 01:58 35.04613 -106.61419 5322 ft 9 kts 108°
2026-05-05 01:58 35.04597 -106.61348 5318 ft 9 kts 103°
2026-05-05 01:58 35.04587 -106.61278 5324 ft 8 kts 97°
2026-05-05 01:59 35.04581 -106.61194 5324 ft 19 kts 91°
2026-05-05 01:59 35.04579 -106.60972 5319 ft 28 kts 89°
2026-05-05 01:59 35.04579 -106.60763 5323 ft 5 kts 92°
2026-05-05 01:59 35.04579 -106.60762 5323 ft 0 kts 92°
2026-05-05 02:01 35.04579 -106.60641 5324 ft 26 kts 89°
2026-05-05 02:02 35.04578 -106.60419 5326 ft 25 kts 91°
2026-05-05 02:02 35.04573 -106.60205 5327 ft 33 kts 91°
2026-05-05 02:02 35.04580 -106.59863 5320 ft 40 kts 86°
2026-05-05 02:02 35.04581 -106.59540 5319 ft 38 kts 90°
2026-05-05 02:03 35.04582 -106.59240 5327 ft 34 kts 90°
2026-05-05 02:03 35.04581 -106.58950 5322 ft 36 kts 90°
2026-05-05 02:03 35.04581 -106.58943 5319 ft 36 kts 90°
2026-05-05 02:03 35.04578 -106.58654 5323 ft 34 kts 90°
2026-05-05 02:04 35.04582 -106.58378 5320 ft 30 kts 93°
2026-05-05 02:04 35.04452 -106.58301 5325 ft 25 kts 216°
2026-05-05 02:04 35.04414 -106.58514 5329 ft 41 kts 270°
2026-05-05 02:04 35.04418 -106.59158 5325 ft 111 kts 271°
2026-05-05 02:05 35.04426 -106.60346 5371 ft 164 kts 271°
2026-05-05 02:05 35.04431 -106.61838 6006 ft 185 kts 270°
2026-05-05 02:05 35.04397 -106.63433 6715 ft 192 kts 269°
2026-05-05 02:05 35.04310 -106.65110 7319 ft 204 kts 269°
2026-05-05 02:06 35.04280 -106.66942 7514 ft 228 kts 271°
2026-05-05 02:06 35.04279 -106.68946 7802 ft 248 kts 271°
2026-05-05 02:06 35.04290 -106.71115 8311 ft 260 kts 270°
2026-05-05 02:06 35.04305 -106.73330 9083 ft 263 kts 270°
2026-05-05 02:07 35.04323 -106.75588 9892 ft 266 kts 270°
2026-05-05 02:07 35.04342 -106.77865 10527 ft 276 kts 270°
2026-05-05 02:07 35.04363 -106.80321 10704 ft 301 kts 270°
2026-05-05 02:07 35.04404 -106.82973 10877 ft 325 kts 271°
2026-05-05 02:08 35.04505 -106.85801 11179 ft 339 kts 272°
2026-05-05 02:08 35.04618 -106.88703 11558 ft 345 kts 272°
2026-05-05 02:08 35.04727 -106.91643 12239 ft 349 kts 272°
2026-05-05 02:08 35.04770 -106.94617 13012 ft 350 kts 268°
2026-05-05 02:09 35.04693 -106.97581 13767 ft 351 kts 267°
2026-05-05 02:09 35.04581 -107.00571 14356 ft 355 kts 267°
2026-05-05 02:09 35.04471 -107.03596 14933 ft 360 kts 268°
2026-05-05 02:09 35.04368 -107.06668 15529 ft 363 kts 268°
2026-05-05 02:10 35.04269 -107.09761 16139 ft 366 kts 268°
2026-05-05 02:10 35.04169 -107.13003 16730 ft 371 kts 268°
2026-05-05 02:10 35.04077 -107.16039 17256 ft 374 kts 268°
2026-05-05 02:10 35.03981 -107.19227 17857 ft 377 kts 268°
2026-05-05 02:11 35.03883 -107.22434 18397 ft 379 kts 268°
2026-05-05 02:11 35.03780 -107.25645 19022 ft 378 kts 268°
2026-05-05 02:11 35.03677 -107.28847 19655 ft 377 kts 267°
2026-05-05 02:11 35.03577 -107.32000 20237 ft 377 kts 267°
2026-05-05 02:12 35.03476 -107.35188 20826 ft 377 kts 266°
2026-05-05 02:12 35.03275 -107.41581 21955 ft 376 kts 266°
2026-05-05 02:12 35.03175 -107.44762 22560 ft 375 kts 265°
2026-05-05 02:13 35.03074 -107.47945 23039 ft 376 kts 265°
2026-05-05 02:13 35.02971 -107.51155 23375 ft 380 kts 265°
2026-05-05 02:13 35.02866 -107.54388 23718 ft 382 kts 265°
2026-05-05 02:13 35.02761 -107.57623 24131 ft 382 kts 265°
2026-05-05 02:14 35.02655 -107.60862 24528 ft 382 kts 265°
2026-05-05 02:14 35.02548 -107.64113 24872 ft 384 kts 265°
2026-05-05 02:14 35.02439 -107.67379 25184 ft 386 kts 265°
2026-05-05 02:14 35.02329 -107.70657 25527 ft 387 kts 265°
2026-05-05 02:15 35.02218 -107.73949 25875 ft 388 kts 265°
2026-05-05 02:15 35.02105 -107.77252 26177 ft 390 kts 265°
2026-05-05 02:15 35.01991 -107.80569 26474 ft 392 kts 265°
2026-05-05 02:15 35.01875 -107.83897 26786 ft 393 kts 265°
2026-05-05 02:16 35.01759 -107.87234 27069 ft 395 kts 265°
2026-05-05 02:16 35.01640 -107.90595 27309 ft 397 kts 265°
2026-05-05 02:16 35.01521 -107.93959 27578 ft 398 kts 265°
2026-05-05 02:16 35.01399 -107.97347 27874 ft 399 kts 265°
2026-05-05 02:17 35.01279 -108.00717 28299 ft 396 kts 265°
2026-05-05 02:17 35.01159 -108.04058 28736 ft 394 kts 265°
2026-05-05 02:17 35.01037 -108.07397 29068 ft 394 kts 265°
2026-05-05 02:17 35.00914 -108.10738 29445 ft 394 kts 265°
2026-05-05 02:18 35.00791 -108.14063 29890 ft 391 kts 265°
2026-05-05 02:18 35.00668 -108.17361 30314 ft 387 kts 265°
2026-05-05 02:18 35.00546 -108.20622 30791 ft 383 kts 264°
2026-05-05 02:18 35.00423 -108.23862 31157 ft 382 kts 264°
2026-05-05 02:19 35.00301 -108.27056 31409 ft 383 kts 264°
2026-05-05 02:19 35.00174 -108.30344 31674 ft 383 kts 264°
2026-05-05 02:19 35.00048 -108.33558 31741 ft 387 kts 264°
2026-05-05 02:20 34.99792 -108.40103 31748 ft 384 kts 264°
2026-05-05 02:20 34.99535 -108.46588 31771 ft 382 kts 264°
2026-05-05 02:21 34.99276 -108.53045 31758 ft 380 kts 264°
2026-05-05 02:21 34.99014 -108.59473 31764 ft 379 kts 264°
2026-05-05 02:22 34.98749 -108.65895 31765 ft 379 kts 264°
2026-05-05 02:22 34.98480 -108.72325 31775 ft 380 kts 264°
2026-05-05 02:23 34.98208 -108.78756 31803 ft 380 kts 264°
2026-05-05 02:23 34.97932 -108.85209 31791 ft 382 kts 263°
2026-05-05 02:24 34.97653 -108.91651 31774 ft 383 kts 263°
2026-05-05 02:24 34.97369 -108.98143 31774 ft 384 kts 263°
2026-05-05 02:25 34.97083 -109.04640 31778 ft 384 kts 263°
2026-05-05 02:25 34.96792 -109.11154 31786 ft 385 kts 263°
2026-05-05 02:26 34.96482 -109.17672 31801 ft 386 kts 262°
2026-05-05 02:26 34.96050 -109.24202 31791 ft 386 kts 262°
2026-05-05 02:27 34.95595 -109.30734 31813 ft 387 kts 262°
2026-05-05 02:27 34.95222 -109.36169 31811 ft 387 kts 262°
2026-05-05 02:28 34.94778 -109.42720 31819 ft 388 kts 262°
2026-05-05 02:28 34.94334 -109.49273 31830 ft 388 kts 261°
2026-05-05 02:29 34.93886 -109.55835 31820 ft 388 kts 261°
2026-05-05 02:29 34.93436 -109.62389 31819 ft 388 kts 261°
2026-05-05 02:30 34.92983 -109.68936 31824 ft 387 kts 261°
2026-05-05 02:30 34.92526 -109.75470 31827 ft 387 kts 261°
2026-05-05 02:31 34.92067 -109.82001 31844 ft 387 kts 261°
2026-05-05 02:31 34.91607 -109.88482 31832 ft 386 kts 261°
2026-05-05 02:32 34.91142 -109.94994 31832 ft 386 kts 261°
2026-05-05 02:32 34.90674 -110.01499 31837 ft 385 kts 261°
2026-05-05 02:33 34.90202 -110.08006 31837 ft 385 kts 261°
2026-05-05 02:33 34.89727 -110.14505 31851 ft 385 kts 260°
2026-05-05 02:34 34.89249 -110.21008 31854 ft 385 kts 260°
2026-05-05 02:34 34.88767 -110.27512 31855 ft 386 kts 260°
2026-05-05 02:35 34.88283 -110.34014 31860 ft 386 kts 260°
2026-05-05 02:35 34.87795 -110.40524 31864 ft 386 kts 260°
2026-05-05 02:36 34.87305 -110.47035 31865 ft 386 kts 260°
2026-05-05 02:36 34.86807 -110.53543 31864 ft 386 kts 260°
2026-05-05 02:37 34.86298 -110.60061 31871 ft 387 kts 260°
2026-05-05 02:37 34.85788 -110.66580 31963 ft 387 kts 260°
2026-05-05 02:38 34.85276 -110.73109 31960 ft 388 kts 260°
2026-05-05 02:38 34.84760 -110.79651 31959 ft 388 kts 260°
2026-05-05 02:39 34.84243 -110.86187 31937 ft 388 kts 259°
2026-05-05 02:39 34.83719 -110.92740 31929 ft 389 kts 259°
2026-05-05 02:40 34.83195 -110.99261 31920 ft 390 kts 259°
2026-05-05 02:40 34.82663 -111.05837 31904 ft 391 kts 259°
2026-05-05 02:41 34.82127 -111.12421 31896 ft 391 kts 259°
2026-05-05 02:41 34.81588 -111.19004 31906 ft 391 kts 258°
2026-05-05 02:42 34.81047 -111.25568 31911 ft 389 kts 258°
2026-05-05 02:42 34.80505 -111.32106 31908 ft 388 kts 258°
2026-05-05 02:43 34.79960 -111.38615 31907 ft 386 kts 258°
2026-05-05 02:43 34.79413 -111.45111 31911 ft 388 kts 258°
2026-05-05 02:44 34.78851 -111.51700 31910 ft 395 kts 258°
2026-05-05 02:44 34.78280 -111.58388 31973 ft 398 kts 258°
2026-05-05 02:45 34.77708 -111.65079 31994 ft 397 kts 258°
2026-05-05 02:45 34.77132 -111.71768 32012 ft 397 kts 258°
2026-05-05 02:46 34.76558 -111.78391 32011 ft 396 kts 258°
2026-05-05 02:46 34.75981 -111.85011 31907 ft 391 kts 257°
2026-05-05 02:46 34.75692 -111.88294 31654 ft 390 kts 257°
2026-05-05 02:47 34.75403 -111.91567 31395 ft 392 kts 257°
2026-05-05 02:47 34.75108 -111.94878 31147 ft 394 kts 257°
2026-05-05 02:47 34.74812 -111.98200 30902 ft 397 kts 257°
2026-05-05 02:47 34.74513 -112.01543 30651 ft 399 kts 257°
2026-05-05 02:48 34.74213 -112.04904 30402 ft 400 kts 258°
2026-05-05 02:48 34.73911 -112.08278 30158 ft 402 kts 258°
2026-05-05 02:48 34.73607 -112.11668 29991 ft 404 kts 257°
2026-05-05 02:49 34.73001 -112.18441 29972 ft 400 kts 257°
2026-05-05 02:49 34.72399 -112.25121 29981 ft 396 kts 257°
2026-05-05 02:50 34.71784 -112.31803 30010 ft 398 kts 257°
2026-05-05 02:50 34.71171 -112.38503 30013 ft 399 kts 257°
2026-05-05 02:51 34.70554 -112.45206 30016 ft 399 kts 257°
2026-05-05 02:51 34.69888 -112.51875 29869 ft 395 kts 255°
2026-05-05 02:52 34.69096 -112.58457 29866 ft 393 kts 255°
2026-05-05 02:52 34.68304 -112.64956 29867 ft 391 kts 255°
2026-05-05 02:53 34.67519 -112.71484 29858 ft 390 kts 255°
2026-05-05 02:53 34.66740 -112.78006 29868 ft 390 kts 255°
2026-05-05 02:54 34.65962 -112.84514 29875 ft 388 kts 254°
2026-05-05 02:54 34.65187 -112.90980 29862 ft 386 kts 254°
2026-05-05 02:55 34.64411 -112.97418 29869 ft 384 kts 254°
2026-05-05 02:55 34.63634 -113.03830 29863 ft 383 kts 254°
2026-05-05 02:56 34.62858 -113.10222 29840 ft 381 kts 254°
2026-05-05 02:56 34.62074 -113.16582 29870 ft 382 kts 254°
2026-05-05 02:57 34.61295 -113.22945 29858 ft 384 kts 254°
2026-05-05 02:57 34.60503 -113.29360 29838 ft 384 kts 254°
2026-05-05 02:58 34.59709 -113.35775 29856 ft 385 kts 254°
2026-05-05 02:58 34.58912 -113.42206 29842 ft 386 kts 254°
2026-05-05 02:59 34.58109 -113.48643 29848 ft 386 kts 253°
2026-05-05 02:59 34.57307 -113.55082 29845 ft 385 kts 254°
2026-05-05 03:00 34.56638 -113.60406 29842 ft 384 kts 253°
2026-05-05 03:00 34.55727 -113.67900 29847 ft 385 kts 254°
2026-05-05 03:01 34.55033 -113.74337 29854 ft 385 kts 255°
2026-05-05 03:01 34.54337 -113.80789 29860 ft 386 kts 255°
2026-05-05 03:02 34.53629 -113.87254 29848 ft 387 kts 255°
2026-05-05 03:02 34.52915 -113.93724 29842 ft 387 kts 255°
2026-05-05 03:03 34.52198 -114.00194 29847 ft 387 kts 255°
2026-05-05 03:03 34.51440 -114.06649 29843 ft 384 kts 252°
2026-05-05 03:04 34.50180 -114.12915 29862 ft 383 kts 249°
2026-05-05 03:04 34.48775 -114.19151 29860 ft 384 kts 249°
2026-05-05 03:05 34.47406 -114.25383 29866 ft 386 kts 249°
2026-05-05 03:05 34.46054 -114.31677 29865 ft 386 kts 249°
2026-05-05 03:06 34.44708 -114.37979 29821 ft 386 kts 249°
2026-05-05 03:06 34.43360 -114.44280 29837 ft 387 kts 249°
2026-05-05 03:07 34.42006 -114.50595 29830 ft 388 kts 249°
2026-05-05 03:07 34.40646 -114.56923 29824 ft 388 kts 249°
2026-05-05 03:08 34.39282 -114.63250 29819 ft 388 kts 249°
2026-05-05 03:08 34.37915 -114.69575 29821 ft 388 kts 249°
2026-05-05 03:09 34.36544 -114.75905 29827 ft 389 kts 249°
2026-05-05 03:09 34.35168 -114.82240 29816 ft 390 kts 249°
2026-05-05 03:10 34.33793 -114.88579 29842 ft 388 kts 249°
2026-05-05 03:10 34.32409 -114.94896 29831 ft 389 kts 249°
2026-05-05 03:11 34.31020 -115.01208 29848 ft 388 kts 249°
2026-05-05 03:11 34.29643 -115.07472 29835 ft 387 kts 249°
2026-05-05 03:12 34.28261 -115.13761 29832 ft 386 kts 249°
2026-05-05 03:12 34.26877 -115.20035 29830 ft 386 kts 249°
2026-05-05 03:13 34.25511 -115.26305 29822 ft 386 kts 250°
2026-05-05 03:13 34.24177 -115.32578 29843 ft 385 kts 249°
2026-05-05 03:14 34.22837 -115.38870 29842 ft 387 kts 249°
2026-05-05 03:14 34.21719 -115.44105 29841 ft 387 kts 249°
2026-05-05 03:15 34.20144 -115.51468 29838 ft 387 kts 249°
2026-05-05 03:15 34.18797 -115.57730 29849 ft 388 kts 249°
2026-05-05 03:16 34.17436 -115.64050 29858 ft 389 kts 249°
2026-05-05 03:16 34.16679 -115.69519 29869 ft 397 kts 256°
2026-05-05 03:17 34.16034 -115.76159 29863 ft 399 kts 256°
2026-05-05 03:17 34.15372 -115.82818 29892 ft 399 kts 256°
2026-05-05 03:18 34.14693 -115.89430 29912 ft 399 kts 256°
2026-05-05 03:18 34.14000 -115.96077 29973 ft 399 kts 256°
2026-05-05 03:19 34.12943 -116.06118 29946 ft 400 kts 256°
2026-05-05 03:19 34.12246 -116.12735 29957 ft 399 kts 256°
2026-05-05 03:20 34.11535 -116.19382 29918 ft 398 kts 256°
2026-05-05 03:20 34.10831 -116.26006 29938 ft 399 kts 256°
2026-05-05 03:21 34.10124 -116.32634 29888 ft 391 kts 255°
2026-05-05 03:21 34.09786 -116.35841 29564 ft 380 kts 256°
2026-05-05 03:21 34.09455 -116.38961 29100 ft 372 kts 256°
2026-05-05 03:22 34.09127 -116.42020 28650 ft 365 kts 256°
2026-05-05 03:22 34.08803 -116.45032 28150 ft 359 kts 256°
2026-05-05 03:22 34.08482 -116.48011 27628 ft 356 kts 256°
2026-05-05 03:22 34.08164 -116.50959 27126 ft 353 kts 256°
2026-05-05 03:23 34.07850 -116.53874 26788 ft 346 kts 256°
2026-05-05 03:23 34.07546 -116.56705 26635 ft 336 kts 256°
2026-05-05 03:23 34.07250 -116.59463 26368 ft 329 kts 256°
2026-05-05 03:23 34.06979 -116.62203 25523 ft 339 kts 257°
2026-05-05 03:24 34.06712 -116.65072 24942 ft 343 kts 258°
2026-05-05 03:24 34.06451 -116.67934 24452 ft 344 kts 258°
2026-05-05 03:24 34.06191 -116.70790 23998 ft 343 kts 259°
2026-05-05 03:24 34.05929 -116.73653 23560 ft 343 kts 259°
2026-05-05 03:25 34.05668 -116.76512 23091 ft 342 kts 259°
2026-05-05 03:25 34.05403 -116.79360 22604 ft 341 kts 259°
2026-05-05 03:25 34.05137 -116.82199 22155 ft 340 kts 259°
2026-05-05 03:25 34.04871 -116.85023 21722 ft 339 kts 259°
2026-05-05 03:26 34.04603 -116.87847 21317 ft 338 kts 259°
2026-05-05 03:26 34.04314 -116.90656 20699 ft 341 kts 258°
2026-05-05 03:26 34.03939 -116.93505 20132 ft 344 kts 257°
2026-05-05 03:26 34.03551 -116.96350 19664 ft 344 kts 257°
2026-05-05 03:27 34.03172 -116.99189 19253 ft 342 kts 257°
2026-05-05 03:27 34.02800 -117.02021 18829 ft 341 kts 257°
2026-05-05 03:27 34.02442 -117.04845 18343 ft 342 kts 258°
2026-05-05 03:27 34.02104 -117.07685 17844 ft 342 kts 258°
2026-05-05 03:28 34.01773 -117.10520 17403 ft 340 kts 259°
2026-05-05 03:28 34.01446 -117.13329 16991 ft 337 kts 259°
2026-05-05 03:28 34.01118 -117.16116 16581 ft 335 kts 259°
2026-05-05 03:28 34.00790 -117.18882 16225 ft 332 kts 259°
2026-05-05 03:29 34.00462 -117.21621 15825 ft 329 kts 259°
2026-05-05 03:29 34.00137 -117.24344 15429 ft 327 kts 259°
2026-05-05 03:29 33.99813 -117.27047 15009 ft 325 kts 259°
2026-05-05 03:29 33.99489 -117.29741 14615 ft 324 kts 259°
2026-05-05 03:30 33.99168 -117.32422 14212 ft 323 kts 260°
2026-05-05 03:30 33.98854 -117.35097 13812 ft 322 kts 260°
2026-05-05 03:30 33.98542 -117.37759 13380 ft 320 kts 260°
2026-05-05 03:30 33.98233 -117.40405 12971 ft 318 kts 260°
2026-05-05 03:31 33.97923 -117.43034 12569 ft 316 kts 260°
2026-05-05 03:31 33.97616 -117.45635 12307 ft 309 kts 260°
2026-05-05 03:31 33.97342 -117.48164 12179 ft 300 kts 265°
2026-05-05 03:31 33.97610 -117.50639 11884 ft 299 kts 283°
2026-05-05 03:32 33.98189 -117.53037 11555 ft 298 kts 283°
2026-05-05 03:32 33.98769 -117.55423 11228 ft 296 kts 283°
2026-05-05 03:32 33.99342 -117.57799 10877 ft 295 kts 283°
2026-05-05 03:32 33.99908 -117.60165 10536 ft 293 kts 283°
2026-05-05 03:33 34.00461 -117.62491 10412 ft 284 kts 283°
2026-05-05 03:33 34.00994 -117.64747 10270 ft 276 kts 283°
2026-05-05 03:33 34.01510 -117.66937 10150 ft 268 kts 283°
2026-05-05 03:33 34.02007 -117.69067 10032 ft 260 kts 281°
2026-05-05 03:34 34.02124 -117.71198 9752 ft 255 kts 261°
2026-05-05 03:34 34.01887 -117.73320 9479 ft 257 kts 261°
2026-05-05 03:34 34.01671 -117.75466 9176 ft 258 kts 265°
2026-05-05 03:34 34.01776 -117.77621 8888 ft 257 kts 272°
2026-05-05 03:35 34.01636 -117.79751 8584 ft 255 kts 259°
2026-05-05 03:35 34.01333 -117.81853 8294 ft 254 kts 260°
2026-05-05 03:35 34.01096 -117.83936 8021 ft 253 kts 262°
2026-05-05 03:35 34.00878 -117.86044 7726 ft 252 kts 262°
2026-05-05 03:36 34.00657 -117.88132 7442 ft 251 kts 262°
2026-05-05 03:36 34.00433 -117.90221 7153 ft 251 kts 262°
2026-05-05 03:36 34.00210 -117.92307 6874 ft 250 kts 262°
2026-05-05 03:36 33.99990 -117.94381 6599 ft 249 kts 262°
2026-05-05 03:37 33.99770 -117.96450 6328 ft 248 kts 262°
2026-05-05 03:37 33.99552 -117.98504 6050 ft 247 kts 262°
2026-05-05 03:37 33.99337 -118.00563 5721 ft 248 kts 262°
2026-05-05 03:37 33.99116 -118.02625 5416 ft 249 kts 262°
2026-05-05 03:38 33.98896 -118.04708 5087 ft 252 kts 262°
2026-05-05 03:38 33.98676 -118.06803 4808 ft 252 kts 262°
2026-05-05 03:38 33.98457 -118.08886 4520 ft 250 kts 262°
2026-05-05 03:38 33.98242 -118.10936 4245 ft 242 kts 262°
2026-05-05 03:39 33.98034 -118.12917 4056 ft 233 kts 262°
2026-05-05 03:39 33.97839 -118.14786 3940 ft 218 kts 262°
2026-05-05 03:39 33.97657 -118.16531 3815 ft 202 kts 262°
2026-05-05 03:39 33.97491 -118.18114 3692 ft 187 kts 262°
2026-05-05 03:40 33.97332 -118.19637 3481 ft 180 kts 262°
2026-05-05 03:40 33.97181 -118.21091 3281 ft 168 kts 262°
2026-05-05 03:40 33.97041 -118.22437 3033 ft 155 kts 262°
2026-05-05 03:40 33.96917 -118.23643 2857 ft 135 kts 262°
2026-05-05 03:41 33.96804 -118.24738 2668 ft 130 kts 263°
2026-05-05 03:41 33.96690 -118.25834 2515 ft 132 kts 262°
2026-05-05 03:41 33.96577 -118.26923 2324 ft 130 kts 263°
2026-05-05 03:41 33.96462 -118.28027 2150 ft 135 kts 263°
2026-05-05 03:42 33.96347 -118.29143 1984 ft 132 kts 263°
2026-05-05 03:42 33.96234 -118.30236 1798 ft 133 kts 263°
2026-05-05 03:42 33.96122 -118.31343 1638 ft 131 kts 262°
2026-05-05 03:42 33.96013 -118.32437 1455 ft 132 kts 262°
2026-05-05 03:43 33.95900 -118.33514 1335 ft 128 kts 263°
2026-05-05 03:43 33.95789 -118.34589 1161 ft 131 kts 263°
2026-05-05 03:43 33.95674 -118.35690 965 ft 132 kts 263°
2026-05-05 03:43 33.95559 -118.36779 779 ft 130 kts 261°
2026-05-05 03:44 33.95461 -118.37846 585 ft 127 kts 261°
2026-05-05 03:44 33.95339 -118.38935 403 ft 134 kts 262°
2026-05-05 03:44 33.95232 -118.40055 225 ft 135 kts 260°
2026-05-05 03:44 33.95116 -118.41120 127 ft 116 kts 261°
2026-05-05 03:45 33.95029 -118.41970 125 ft 85 kts 264°
2026-05-05 03:45 33.94960 -118.42499 123 ft 35 kts 245°
2026-05-05 03:45 33.94862 -118.42667 122 ft 18 kts 226°
2026-05-05 03:45 33.94768 -118.42755 120 ft 17 kts 207°
2026-05-05 03:46 33.94663 -118.42777 122 ft 11 kts 160°
2026-05-05 03:46 33.94634 -118.42698 124 ft 11 kts 85°
2026-05-05 03:46 33.94644 -118.42596 125 ft 15 kts 90°
2026-05-05 03:46 33.94660 -118.42448 122 ft 21 kts 81°
2026-05-05 03:47 33.94681 -118.42247 125 ft 27 kts 83°
2026-05-05 03:47 33.94704 -118.42024 121 ft 26 kts 82°
2026-05-05 03:47 33.94727 -118.41813 125 ft 24 kts 83°
2026-05-05 03:47 33.94747 -118.41618 120 ft 23 kts 83°
2026-05-05 03:48 33.94768 -118.41432 125 ft 22 kts 76°
2026-05-05 03:48 33.94798 -118.41253 124 ft 22 kts 83°
2026-05-05 03:48 33.94817 -118.41077 125 ft 21 kts 82°
2026-05-05 03:48 33.94832 -118.40909 121 ft 20 kts 84°
2026-05-05 03:49 33.94848 -118.40748 122 ft 19 kts 81°
2026-05-05 03:49 33.94843 -118.40616 121 ft 11 kts 139°
2026-05-05 03:49 33.94794 -118.40562 125 ft 10 kts 112°
2026-05-05 03:49 33.94796 -118.40476 125 ft 12 kts 82°
2026-05-05 03:50 33.94805 -118.40397 122 ft 11 kts 84°
2026-05-05 03:50 33.94810 -118.40318 125 ft 1 kts 94°
2026-05-05 03:50 33.94808 -118.40306 125 ft 7 kts 98°
2026-05-05 03:50 33.94769 -118.40264 123 ft 8 kts 170°
2026-05-05 03:51 33.94714 -118.40255 123 ft 8 kts 173°
2026-05-05 03:51 33.94692 -118.40250 122 ft 3 kts 157°
2026-05-05 03:51 33.94685 -118.40234 123 ft 2 kts 99°
2026-05-05 03:51 33.94684 -118.40220 124 ft 2 kts 91°
2026-05-05 03:52 33.94685 -118.40206 125 ft 2 kts 83°
2026-05-05 03:52 33.94686 -118.40195 125 ft 1 kts 83°
2026-05-05 03:52 33.94687 -118.40188 125 ft 1 kts 83°
2026-05-05 03:52 33.94687 -118.40186 125 ft 0 kts 82°